Hourly Weather Makiivka

Today, 30 September, Wednesday

Time Temperature Precipitation Wind Pressure Humidity
00:00 +17°C° 0 mm 9 mps 743 mmHg 39%
01:00 +16°C° 0 mm 9 mps 742 mmHg 40%
02:00 +16°C° 0 mm 9 mps 742 mmHg 42%
03:00 +15°C° 0 mm 9 mps 742 mmHg 44%
04:00 +13°C° 0 mm 9 mps 742 mmHg 48%
05:00 +13°C° 0 mm 9 mps 741 mmHg 52%
06:00 +12°C° 0 mm 10 mps 741 mmHg 55%
07:00 +13°C° 0 mm 10 mps 741 mmHg 54%
08:00 +13°C° 0 mm 10 mps 741 mmHg 52%
09:00 +14°C° 0 mm 11 mps 741 mmHg 52%
10:00 +16°C° 0 mm 11 mps 741 mmHg 47%
11:00 +18°C° 0 mm 10 mps 741 mmHg 42%
12:00 +19°C° 0 mm 10 mps 741 mmHg 37%
13:00 +21°C° 0 mm 10 mps 741 mmHg 32%
14:00 +22°C° 0 mm 10 mps 740 mmHg 28%
15:00 +23°C° 0 mm 11 mps 740 mmHg 24%
16:00 +23°C° 0.1 mm 9 mps 740 mmHg 26%
17:00 +22°C° 0.1 mm 7 mps 740 mmHg 28%
18:00 +22°C° 0.1 mm 6 mps 741 mmHg 29%
19:00 +21°C° 0.2 mm 7 mps 741 mmHg 34%
20:00 +20°C° 0.2 mm 8 mps 741 mmHg 38%
21:00 +18°C° 0.2 mm 10 mps 741 mmHg 42%
22:00 +17°C° 0 mm 10 mps 742 mmHg 40%
23:00 +17°C° 0 mm 9 mps 742 mmHg 38%

Tomorrow, 1 October, Thursday

Time Temperature Precipitation Wind Pressure Humidity
00:00 +16°C° 0 mm 9 mps 742 mmHg 36%
01:00 +16°C° 0 mm 9 mps 742 mmHg 38%
02:00 +15°C° 0 mm 8 mps 742 mmHg 40%
03:00 +15°C° 0 mm 8 mps 743 mmHg 42%
04:00 +13°C° 0 mm 8 mps 743 mmHg 44%
05:00 +13°C° 0 mm 8 mps 743 mmHg 47%
06:00 +14°C° 0 mm 7 mps 743 mmHg 50%
07:00 +13°C° 0 mm 8 mps 743 mmHg 49%
08:00 +15°C° 0 mm 8 mps 743 mmHg 48%
09:00 +15°C° 0 mm 9 mps 743 mmHg 47%
10:00 +17°C° 0 mm 9 mps 743 mmHg 44%
11:00 +19°C° 0 mm 9 mps 743 mmHg 40%
12:00 +21°C° 0 mm 9 mps 743 mmHg 37%
13:00 +21°C° 0.2 mm 7 mps 743 mmHg 38%
14:00 +20°C° 0.2 mm 6 mps 743 mmHg 39%
15:00 +20°C° 0.2 mm 5 mps 743 mmHg 40%
16:00 +20°C° 0.1 mm 5 mps 743 mmHg 41%
17:00 +20°C° 0.1 mm 5 mps 743 mmHg 41%
18:00 +20°C° 0.1 mm 5 mps 743 mmHg 41%
19:00 +19°C° 0.3 mm 5 mps 743 mmHg 42%
20:00 +19°C° 0.3 mm 5 mps 743 mmHg 42%
21:00 +19°C° 0.3 mm 5 mps 743 mmHg 42%
22:00 +19°C° 0 mm 6 mps 743 mmHg 41%
23:00 +17°C° 0 mm 6 mps 743 mmHg 40%

Day after tomorrow, 2 October, Friday

Time Temperature Precipitation Wind Pressure Humidity
00:00 +17°C° 0 mm 7 mps 743 mmHg 39%
01:00 +17°C° 0 mm 7 mps 743 mmHg 41%
02:00 +16°C° 0 mm 7 mps 744 mmHg 42%
03:00 +15°C° 0 mm 7 mps 744 mmHg 44%
04:00 +15°C° 0 mm 6 mps 744 mmHg 48%
05:00 +14°C° 0 mm 6 mps 744 mmHg 51%
06:00 +14°C° 0 mm 6 mps 744 mmHg 54%
07:00 +14°C° 0 mm 6 mps 745 mmHg 53%
08:00 +15°C° 0 mm 6 mps 745 mmHg 52%
09:00 +15°C° 0 mm 6 mps 745 mmHg 51%
10:00 +17°C° 0 mm 6 mps 745 mmHg 47%
11:00 +19°C° 0 mm 6 mps 745 mmHg 44%
12:00 +21°C° 0 mm 5 mps 746 mmHg 41%
13:00 +21°C° 0 mm 5 mps 746 mmHg 40%
14:00 +22°C° 0 mm 5 mps 746 mmHg 39%
15:00 +23°C° 0 mm 5 mps 746 mmHg 38%
16:00 +22°C° 0 mm 4 mps 746 mmHg 40%
17:00 +21°C° 0 mm 4 mps 746 mmHg 43%
18:00 +20°C° 0 mm 3 mps 746 mmHg 45%
19:00 +19°C° 0 mm 3 mps 746 mmHg 48%
20:00 +18°C° 0 mm 3 mps 747 mmHg 51%
21:00 +17°C° 0 mm 3 mps 747 mmHg 53%
22:00 +16°C° 0 mm 3 mps 747 mmHg 56%
23:00 +16°C° 0 mm 3 mps 747 mmHg 58%

3 October, Saturday

Time Temperature Precipitation Wind Pressure Humidity
00:00 +14°C° 0 mm 3 mps 747 mmHg 60%
01:00 +14°C° 0 mm 3 mps 747 mmHg 60%
02:00 +14°C° 0 mm 3 mps 747 mmHg 60%
03:00 +14°C° 0 mm 4 mps 748 mmHg 59%
04:00 +13°C° 0 mm 4 mps 748 mmHg 67%
05:00 +13°C° 0 mm 4 mps 748 mmHg 75%
06:00 +12°C° 0 mm 4 mps 748 mmHg 83%
07:00 +13°C° 0 mm 5 mps 748 mmHg 78%
08:00 +14°C° 0 mm 5 mps 749 mmHg 72%
09:00 +15°C° 0 mm 5 mps 749 mmHg 67%
10:00 +16°C° 0 mm 5 mps 749 mmHg 61%
11:00 +19°C° 0 mm 5 mps 749 mmHg 55%
12:00 +21°C° 0 mm 4 mps 749 mmHg 50%
13:00 +21°C° 0 mm 4 mps 749 mmHg 47%
14:00 +22°C° 0 mm 4 mps 749 mmHg 43%
15:00 +22°C° 0 mm 3 mps 749 mmHg 40%
16:00 +21°C° 0 mm 3 mps 749 mmHg 41%
17:00 +21°C° 0 mm 3 mps 748 mmHg 43%
18:00 +20°C° 0 mm 2 mps 748 mmHg 45%
19:00 +19°C° 0 mm 3 mps 749 mmHg 45%
20:00 +18°C° 0 mm 3 mps 749 mmHg 45%
21:00 +17°C° 0 mm 3 mps 749 mmHg 46%
22:00 +17°C° 0 mm 3 mps 749 mmHg 49%
23:00 +16°C° 0 mm 3 mps 749 mmHg 52%

4 October, Sunday

Time Temperature Precipitation Wind Pressure Humidity
00:00 +16°C° 0 mm 3 mps 749 mmHg 55%
01:00 +14°C° 0 mm 3 mps 749 mmHg 57%
02:00 +14°C° 0 mm 3 mps 749 mmHg 58%
03:00 +13°C° 0 mm 3 mps 749 mmHg 60%
04:00 +13°C° 0 mm 3 mps 749 mmHg 60%
05:00 +13°C° 0 mm 3 mps 749 mmHg 60%
06:00 +13°C° 0 mm 3 mps 749 mmHg 59%
07:00 +14°C° 0 mm 3 mps 749 mmHg 57%
08:00 +16°C° 0 mm 3 mps 749 mmHg 54%
09:00 +17°C° 0 mm 3 mps 749 mmHg 51%
10:00 +19°C° 0 mm 3 mps 749 mmHg 48%
11:00 +21°C° 0 mm 3 mps 749 mmHg 44%
12:00 +22°C° 0 mm 3 mps 749 mmHg 40%
13:00 +24°C° 0 mm 3 mps 749 mmHg 38%
14:00 +25°C° 0 mm 3 mps 749 mmHg 37%
15:00 +25°C° 0 mm 2 mps 749 mmHg 35%
16:00 +24°C° 0 mm 2 mps 748 mmHg 37%
17:00 +23°C° 0 mm 2 mps 748 mmHg 40%
18:00 +22°C° 0 mm 1 mps 748 mmHg 43%
19:00 +20°C° 0 mm 2 mps 748 mmHg 46%
20:00 +19°C° 0 mm 2 mps 749 mmHg 50%
21:00 +19°C° 0 mm 2 mps 749 mmHg 53%
22:00 +18°C° 0 mm 2 mps 749 mmHg 53%
23:00 +17°C° 0 mm 3 mps 749 mmHg 52%

5 October, Monday

Time Temperature Precipitation Wind Pressure Humidity
00:00 +17°C° 0 mm 3 mps 748 mmHg 52%
01:00 +16°C° 0 mm 3 mps 748 mmHg 51%
02:00 +16°C° 0 mm 3 mps 748 mmHg 51%
03:00 +15°C° 0 mm 2 mps 748 mmHg 51%
04:00 +15°C° 0 mm 2 mps 748 mmHg 50%
05:00 +15°C° 0 mm 2 mps 749 mmHg 49%
06:00 +15°C° 0 mm 2 mps 749 mmHg 48%
07:00 +16°C° 0 mm 3 mps 749 mmHg 44%
08:00 +17°C° 0 mm 3 mps 749 mmHg 39%
09:00 +19°C° 0 mm 3 mps 749 mmHg 35%
10:00 +20°C° 0 mm 4 mps 749 mmHg 34%
11:00 +22°C° 0 mm 4 mps 749 mmHg 32%
12:00 +25°C° 0 mm 5 mps 749 mmHg 30%
13:00 +25°C° 0 mm 4 mps 749 mmHg 29%
14:00 +26°C° 0 mm 4 mps 749 mmHg 29%
15:00 +26°C° 0 mm 4 mps 749 mmHg 28%
16:00 +25°C° 0 mm 4 mps 749 mmHg 31%
17:00 +24°C° 0 mm 3 mps 748 mmHg 34%
18:00 +22°C° 0 mm 3 mps 748 mmHg 36%
19:00 +21°C° 0 mm 3 mps 748 mmHg 38%
20:00 +20°C° 0 mm 4 mps 748 mmHg 40%
21:00 +19°C° 0 mm 4 mps 748 mmHg 42%
22:00 +18°C° 0 mm 4 mps 748 mmHg 38%
23:00 +18°C° 0 mm 4 mps 748 mmHg 35%
Show more